owner,sensor,date,latitude,longitude,air_pressure(mBar),qcFlag 
TCOON,ioos:station:TCOON:146:1,2017-08-01T00:30:00Z,28.1324,-97.0345,1012.2,1111122 
TCOON,ioos:station:TCOON:146:1,2017-08-01T01:30:00Z,28.1324,-97.0345,1012.9,1111122 
TCOON,ioos:station:TCOON:146:1,2017-08-01T02:30:00Z,28.1324,-97.0345,1013.1,1111122 
TCOON,ioos:station:TCOON:146:1,2017-08-01T03:30:00Z,28.1324,-97.0345,1013.5,1111122 
TCOON,ioos:station:TCOON:146:1,2017-08-01T04:30:00Z,28.1324,-97.0345,1013.8,1111122 
TCOON,ioos:station:TCOON:146:1,2017-08-01T05:30:00Z,28.1324,-97.0345,1013.7,1111122 
TCOON,ioos:station:TCOON:146:1,2017-08-01T06:30:00Z,28.1324,-97.0345,1013.3,1111122 
TCOON,ioos:station:TCOON:146:1,2017-08-01T07:30:00Z,28.1324,-97.0345,1013.0,1111122 
TCOON,ioos:station:TCOON:146:1,2017-08-01T08:30:00Z,28.1324,-97.0345,1013.0,1111122 
TCOON,ioos:station:TCOON:146:1,2017-08-01T09:30:00Z,28.1324,-97.0345,1013.1,1111122 
TCOON,ioos:station:TCOON:146:1,2017-08-01T10:30:00Z,28.1324,-97.0345,1013.2,1111122 
TCOON,ioos:station:TCOON:146:1,2017-08-01T11:30:00Z,28.1324,-97.0345,1013.2,1111122 
TCOON,ioos:station:TCOON:146:1,2017-08-01T12:30:00Z,28.1324,-97.0345,1013.6,1111122 
TCOON,ioos:station:TCOON:146:1,2017-08-01T13:30:00Z,28.1324,-97.0345,1014.1,1111122 
TCOON,ioos:station:TCOON:146:1,2017-08-01T14:30:00Z,28.1324,-97.0345,1014.3,1111122 
TCOON,ioos:station:TCOON:146:1,2017-08-01T15:30:00Z,28.1324,-97.0345,1014.4,1111122 
TCOON,ioos:station:TCOON:146:1,2017-08-01T16:30:00Z,28.1324,-97.0345,1014.4,1111122 
TCOON,ioos:station:TCOON:146:1,2017-08-01T17:30:00Z,28.1324,-97.0345,1014.2,1111122 
TCOON,ioos:station:TCOON:146:1,2017-08-01T18:30:00Z,28.1324,-97.0345,1013.6,1111122 
TCOON,ioos:station:TCOON:146:1,2017-08-01T19:30:00Z,28.1324,-97.0345,1013.0,1111122 
TCOON,ioos:station:TCOON:146:1,2017-08-01T20:30:00Z,28.1324,-97.0345,1012.4,1111122 
TCOON,ioos:station:TCOON:146:1,2017-08-01T22:30:00Z,28.1324,-97.0345,1011.8,1111122 
TCOON,ioos:station:TCOON:146:1,2017-08-02T01:30:00Z,28.1324,-97.0345,1012.2,1111122 
TCOON,ioos:station:TCOON:146:1,2017-08-02T02:30:00Z,28.1324,-97.0345,1013.0,1111122 
TCOON,ioos:station:TCOON:146:1,2017-08-02T03:30:00Z,28.1324,-97.0345,1013.3,1111122 
TCOON,ioos:station:TCOON:146:1,2017-08-02T04:30:00Z,28.1324,-97.0345,1013.7,1111122 
TCOON,ioos:station:TCOON:146:1,2017-08-02T05:30:00Z,28.1324,-97.0345,1013.7,1111122 
TCOON,ioos:station:TCOON:146:1,2017-08-02T06:30:00Z,28.1324,-97.0345,1013.8,1111122 
TCOON,ioos:station:TCOON:146:1,2017-08-02T07:30:00Z,28.1324,-97.0345,1013.5,1111122 
TCOON,ioos:station:TCOON:146:1,2017-08-02T08:30:00Z,28.1324,-97.0345,1013.3,1111122 
TCOON,ioos:station:TCOON:146:1,2017-08-02T09:30:00Z,28.1324,-97.0345,1013.5,1111122 
TCOON,ioos:station:TCOON:146:1,2017-08-02T10:30:00Z,28.1324,-97.0345,1013.7,1111122 
TCOON,ioos:station:TCOON:146:1,2017-08-02T11:30:00Z,28.1324,-97.0345,1013.8,1111122 
TCOON,ioos:station:TCOON:146:1,2017-08-02T12:30:00Z,28.1324,-97.0345,1013.9,1111122 
TCOON,ioos:station:TCOON:146:1,2017-08-02T13:30:00Z,28.1324,-97.0345,1014.0,1111122 
TCOON,ioos:station:TCOON:146:1,2017-08-02T14:30:00Z,28.1324,-97.0345,1014.1,1111122 
TCOON,ioos:station:TCOON:146:1,2017-08-02T15:30:00Z,28.1324,-97.0345,1014.4,1111122 
TCOON,ioos:station:TCOON:146:1,2017-08-02T16:30:00Z,28.1324,-97.0345,1014.7,1111122 
TCOON,ioos:station:TCOON:146:1,2017-08-02T17:30:00Z,28.1324,-97.0345,1014.2,1111122 
TCOON,ioos:station:TCOON:146:1,2017-08-02T18:30:00Z,28.1324,-97.0345,1013.7,1111122 
TCOON,ioos:station:TCOON:146:1,2017-08-02T19:30:00Z,28.1324,-97.0345,1012.9,1111122 
TCOON,ioos:station:TCOON:146:1,2017-08-02T20:30:00Z,28.1324,-97.0345,1011.9,1111122 
TCOON,ioos:station:TCOON:146:1,2017-08-03T01:30:00Z,28.1324,-97.0345,1012.8,1111122 
TCOON,ioos:station:TCOON:146:1,2017-08-03T03:30:00Z,28.1324,-97.0345,1013.6,1111122 
TCOON,ioos:station:TCOON:146:1,2017-08-03T05:30:00Z,28.1324,-97.0345,1014.6,1111122 
TCOON,ioos:station:TCOON:146:1,2017-08-03T07:30:00Z,28.1324,-97.0345,1014.2,1111122 
TCOON,ioos:station:TCOON:146:1,2017-08-03T08:30:00Z,28.1324,-97.0345,1014.1,1111122 
TCOON,ioos:station:TCOON:146:1,2017-08-03T09:30:00Z,28.1324,-97.0345,1014.0,1111122 
TCOON,ioos:station:TCOON:146:1,2017-08-03T11:30:00Z,28.1324,-97.0345,1014.1,1111122 
TCOON,ioos:station:TCOON:146:1,2017-08-03T13:30:00Z,28.1324,-97.0345,1015.1,1111122 
TCOON,ioos:station:TCOON:146:1,2017-08-03T14:30:00Z,28.1324,-97.0345,1015.7,1111122 
TCOON,ioos:station:TCOON:146:1,2017-08-03T15:30:00Z,28.1324,-97.0345,1016.2,1111122 
TCOON,ioos:station:TCOON:146:1,2017-08-03T16:30:00Z,28.1324,-97.0345,1017.0,1111122 
TCOON,ioos:station:TCOON:146:1,2017-08-04T00:30:00Z,28.1324,-97.0345,1013.7,1111122 
TCOON,ioos:station:TCOON:146:1,2017-08-04T03:30:00Z,28.1324,-97.0345,1015.1,1111122 
TCOON,ioos:station:TCOON:146:1,2017-08-04T06:30:00Z,28.1324,-97.0345,1015.2,1111122 
TCOON,ioos:station:TCOON:146:1,2017-08-04T09:30:00Z,28.1324,-97.0345,1014.9,1111122 
TCOON,ioos:station:TCOON:146:1,2017-08-04T11:30:00Z,28.1324,-97.0345,1014.7,1111122 
TCOON,ioos:station:TCOON:146:1,2017-08-04T14:30:00Z,28.1324,-97.0345,1016.2,1111122 
TCOON,ioos:station:TCOON:146:1,2017-08-04T21:30:00Z,28.1324,-97.0345,1014.1,1111122 
TCOON,ioos:station:TCOON:146:1,2017-08-04T22:30:00Z,28.1324,-97.0345,1013.5,1111122 
TCOON,ioos:station:TCOON:146:1,2017-08-05T05:30:00Z,28.1324,-97.0345,1014.2,1111122 
TCOON,ioos:station:TCOON:146:1,2017-08-05T06:30:00Z,28.1324,-97.0345,1014.2,1111122 
TCOON,ioos:station:TCOON:146:1,2017-08-05T07:30:00Z,28.1324,-97.0345,1014.1,1111122 
TCOON,ioos:station:TCOON:146:1,2017-08-05T08:30:00Z,28.1324,-97.0345,1014.2,1111122 
TCOON,ioos:station:TCOON:146:1,2017-08-05T09:30:00Z,28.1324,-97.0345,1014.1,1111122 
TCOON,ioos:station:TCOON:146:1,2017-08-05T10:30:00Z,28.1324,-97.0345,1013.8,1111122 
TCOON,ioos:station:TCOON:146:1,2017-08-05T11:30:00Z,28.1324,-97.0345,1014.0,1111122 
TCOON,ioos:station:TCOON:146:1,2017-08-05T12:30:00Z,28.1324,-97.0345,1014.4,1111122 
TCOON,ioos:station:TCOON:146:1,2017-08-05T14:30:00Z,28.1324,-97.0345,1014.9,1111122 
TCOON,ioos:station:TCOON:146:1,2017-08-05T15:30:00Z,28.1324,-97.0345,1014.9,1111122 
TCOON,ioos:station:TCOON:146:1,2017-08-05T18:30:00Z,28.1324,-97.0345,1014.0,1111122 
TCOON,ioos:station:TCOON:146:1,2017-08-05T22:30:00Z,28.1324,-97.0345,1011.9,1111122 
TCOON,ioos:station:TCOON:146:1,2017-08-06T03:30:00Z,28.1324,-97.0345,1012.2,1111122 
TCOON,ioos:station:TCOON:146:1,2017-08-06T04:30:00Z,28.1324,-97.0345,1012.2,1111122 
TCOON,ioos:station:TCOON:146:1,2017-08-06T05:30:00Z,28.1324,-97.0345,1011.8,1111122 
TCOON,ioos:station:TCOON:146:1,2017-08-06T06:30:00Z,28.1324,-97.0345,1011.5,1111122 
TCOON,ioos:station:TCOON:146:1,2017-08-06T07:30:00Z,28.1324,-97.0345,1011.1,1111122 
TCOON,ioos:station:TCOON:146:1,2017-08-06T08:30:00Z,28.1324,-97.0345,1010.6,1111122 
TCOON,ioos:station:TCOON:146:1,2017-08-06T09:30:00Z,28.1324,-97.0345,1010.2,1111122 
TCOON,ioos:station:TCOON:146:1,2017-08-06T10:30:00Z,28.1324,-97.0345,1010.5,1111122 
TCOON,ioos:station:TCOON:146:1,2017-08-06T11:30:00Z,28.1324,-97.0345,1010.7,1111122 
TCOON,ioos:station:TCOON:146:1,2017-08-06T12:30:00Z,28.1324,-97.0345,1010.9,1111122 
TCOON,ioos:station:TCOON:146:1,2017-08-06T13:30:00Z,28.1324,-97.0345,1011.4,1111122 
TCOON,ioos:station:TCOON:146:1,2017-08-06T14:30:00Z,28.1324,-97.0345,1011.7,1111122 
TCOON,ioos:station:TCOON:146:1,2017-08-06T15:30:00Z,28.1324,-97.0345,1011.7,1111122 
TCOON,ioos:station:TCOON:146:1,2017-08-06T16:30:00Z,28.1324,-97.0345,1011.9,1111122 
TCOON,ioos:station:TCOON:146:1,2017-08-06T17:30:00Z,28.1324,-97.0345,1012.0,1111122 
TCOON,ioos:station:TCOON:146:1,2017-08-06T18:30:00Z,28.1324,-97.0345,1011.4,1111122 
TCOON,ioos:station:TCOON:146:1,2017-08-06T19:30:00Z,28.1324,-97.0345,1011.0,1111122 
TCOON,ioos:station:TCOON:146:1,2017-08-06T20:30:00Z,28.1324,-97.0345,1010.6,1111122 
TCOON,ioos:station:TCOON:146:1,2017-08-06T21:30:00Z,28.1324,-97.0345,1009.9,1111122 
TCOON,ioos:station:TCOON:146:1,2017-08-06T22:30:00Z,28.1324,-97.0345,1009.2,1111122 
TCOON,ioos:station:TCOON:146:1,2017-08-06T23:30:00Z,28.1324,-97.0345,1008.9,1111122 
TCOON,ioos:station:TCOON:146:1,2017-08-07T00:30:00Z,28.1324,-97.0345,1009.0,1111122 
TCOON,ioos:station:TCOON:146:1,2017-08-07T01:30:00Z,28.1324,-97.0345,1009.3,1111122 
TCOON,ioos:station:TCOON:146:1,2017-08-07T02:30:00Z,28.1324,-97.0345,1009.7,1111122 
TCOON,ioos:station:TCOON:146:1,2017-08-07T03:30:00Z,28.1324,-97.0345,1010.1,1111122 
TCOON,ioos:station:TCOON:146:1,2017-08-07T04:30:00Z,28.1324,-97.0345,1010.5,1111122 
TCOON,ioos:station:TCOON:146:1,2017-08-07T05:30:00Z,28.1324,-97.0345,1011.0,1111122 
TCOON,ioos:station:TCOON:146:1,2017-08-07T06:30:00Z,28.1324,-97.0345,1011.0,1111122 
TCOON,ioos:station:TCOON:146:1,2017-08-07T07:30:00Z,28.1324,-97.0345,1011.0,1111122 
TCOON,ioos:station:TCOON:146:1,2017-08-07T08:30:00Z,28.1324,-97.0345,1010.5,1111122 
TCOON,ioos:station:TCOON:146:1,2017-08-07T09:30:00Z,28.1324,-97.0345,1010.4,1111122 
TCOON,ioos:station:TCOON:146:1,2017-08-07T10:30:00Z,28.1324,-97.0345,1010.1,1111122 
TCOON,ioos:station:TCOON:146:1,2017-08-07T11:30:00Z,28.1324,-97.0345,1010.3,1111122 
TCOON,ioos:station:TCOON:146:1,2017-08-07T12:30:00Z,28.1324,-97.0345,1010.5,1111122 
TCOON,ioos:station:TCOON:146:1,2017-08-07T13:30:00Z,28.1324,-97.0345,1011.5,1111122 
TCOON,ioos:station:TCOON:146:1,2017-08-07T14:30:00Z,28.1324,-97.0345,1011.7,1111122 
TCOON,ioos:station:TCOON:146:1,2017-08-07T15:30:00Z,28.1324,-97.0345,1012.2,1111122 
TCOON,ioos:station:TCOON:146:1,2017-08-07T16:30:00Z,28.1324,-97.0345,1012.9,1111122 
TCOON,ioos:station:TCOON:146:1,2017-08-07T17:30:00Z,28.1324,-97.0345,1013.1,1111122 
TCOON,ioos:station:TCOON:146:1,2017-08-07T18:30:00Z,28.1324,-97.0345,1012.7,1111122 
TCOON,ioos:station:TCOON:146:1,2017-08-07T19:30:00Z,28.1324,-97.0345,1012.4,1111122 
TCOON,ioos:station:TCOON:146:1,2017-08-07T20:30:00Z,28.1324,-97.0345,1011.3,1111122 
TCOON,ioos:station:TCOON:146:1,2017-08-07T21:30:00Z,28.1324,-97.0345,1011.1,1111122 
TCOON,ioos:station:TCOON:146:1,2017-08-07T22:30:00Z,28.1324,-97.0345,1009.7,1111122 
TCOON,ioos:station:TCOON:146:1,2017-08-07T23:30:00Z,28.1324,-97.0345,1009.7,1111122 
TCOON,ioos:station:TCOON:146:1,2017-08-08T00:30:00Z,28.1324,-97.0345,1009.9,1111122 
TCOON,ioos:station:TCOON:146:1,2017-08-08T01:30:00Z,28.1324,-97.0345,1010.8,1111122 
TCOON,ioos:station:TCOON:146:1,2017-08-08T02:30:00Z,28.1324,-97.0345,1011.8,1111122 
TCOON,ioos:station:TCOON:146:1,2017-08-08T03:30:00Z,28.1324,-97.0345,1012.8,1111122 
TCOON,ioos:station:TCOON:146:1,2017-08-08T04:30:00Z,28.1324,-97.0345,1013.4,1111122 
TCOON,ioos:station:TCOON:146:1,2017-08-08T05:30:00Z,28.1324,-97.0345,1013.5,1111122 
TCOON,ioos:station:TCOON:146:1,2017-08-08T06:30:00Z,28.1324,-97.0345,1013.1,1111122 
TCOON,ioos:station:TCOON:146:1,2017-08-08T07:30:00Z,28.1324,-97.0345,1012.6,1111122 
TCOON,ioos:station:TCOON:146:1,2017-08-08T08:30:00Z,28.1324,-97.0345,1011.9,1111122 
TCOON,ioos:station:TCOON:146:1,2017-08-08T09:30:00Z,28.1324,-97.0345,1011.8,1111122 
TCOON,ioos:station:TCOON:146:1,2017-08-08T10:30:00Z,28.1324,-97.0345,1012.0,1111122 
TCOON,ioos:station:TCOON:146:1,2017-08-08T11:30:00Z,28.1324,-97.0345,1012.3,1111122 
TCOON,ioos:station:TCOON:146:1,2017-08-08T12:30:00Z,28.1324,-97.0345,1013.0,1111122 
TCOON,ioos:station:TCOON:146:1,2017-08-08T13:30:00Z,28.1324,-97.0345,1013.5,1111122 
TCOON,ioos:station:TCOON:146:1,2017-08-08T14:30:00Z,28.1324,-97.0345,1014.0,1111122 
TCOON,ioos:station:TCOON:146:1,2017-08-08T15:30:00Z,28.1324,-97.0345,1014.3,1111122 
TCOON,ioos:station:TCOON:146:1,2017-08-08T16:30:00Z,28.1324,-97.0345,1014.1,1111122 
TCOON,ioos:station:TCOON:146:1,2017-08-08T17:30:00Z,28.1324,-97.0345,1013.8,1111122 
TCOON,ioos:station:TCOON:146:1,2017-08-08T18:30:00Z,28.1324,-97.0345,1013.3,1111122 
TCOON,ioos:station:TCOON:146:1,2017-08-08T19:30:00Z,28.1324,-97.0345,1012.6,1111122 
TCOON,ioos:station:TCOON:146:1,2017-08-08T20:30:00Z,28.1324,-97.0345,1012.4,1111122 
TCOON,ioos:station:TCOON:146:1,2017-08-08T21:30:00Z,28.1324,-97.0345,1012.1,1111122 
TCOON,ioos:station:TCOON:146:1,2017-08-08T22:30:00Z,28.1324,-97.0345,1011.5,1111122 
TCOON,ioos:station:TCOON:146:1,2017-08-08T23:30:00Z,28.1324,-97.0345,1011.0,1111122 
TCOON,ioos:station:TCOON:146:1,2017-08-09T00:30:00Z,28.1324,-97.0345,1011.0,1111122 
TCOON,ioos:station:TCOON:146:1,2017-08-09T01:30:00Z,28.1324,-97.0345,1011.6,1111122 
TCOON,ioos:station:TCOON:146:1,2017-08-09T02:30:00Z,28.1324,-97.0345,1012.0,1111122 
TCOON,ioos:station:TCOON:146:1,2017-08-09T03:30:00Z,28.1324,-97.0345,1012.9,1111122 
TCOON,ioos:station:TCOON:146:1,2017-08-09T04:30:00Z,28.1324,-97.0345,1013.3,1111122 
TCOON,ioos:station:TCOON:146:1,2017-08-09T05:30:00Z,28.1324,-97.0345,1013.5,1111122 
TCOON,ioos:station:TCOON:146:1,2017-08-09T06:30:00Z,28.1324,-97.0345,1013.4,1111122 
TCOON,ioos:station:TCOON:146:1,2017-08-09T07:30:00Z,28.1324,-97.0345,1013.3,1111122 
TCOON,ioos:station:TCOON:146:1,2017-08-09T08:30:00Z,28.1324,-97.0345,1013.0,1111122 
TCOON,ioos:station:TCOON:146:1,2017-08-09T09:30:00Z,28.1324,-97.0345,1013.0,1111122 
TCOON,ioos:station:TCOON:146:1,2017-08-09T10:30:00Z,28.1324,-97.0345,1013.1,1111122 
TCOON,ioos:station:TCOON:146:1,2017-08-09T11:30:00Z,28.1324,-97.0345,1013.2,1111122 
TCOON,ioos:station:TCOON:146:1,2017-08-09T12:30:00Z,28.1324,-97.0345,1013.9,1111122 
TCOON,ioos:station:TCOON:146:1,2017-08-09T13:30:00Z,28.1324,-97.0345,1014.4,1111122 
TCOON,ioos:station:TCOON:146:1,2017-08-09T14:30:00Z,28.1324,-97.0345,1015.0,1111122 
TCOON,ioos:station:TCOON:146:1,2017-08-09T15:30:00Z,28.1324,-97.0345,1015.0,1111122 
TCOON,ioos:station:TCOON:146:1,2017-08-09T16:30:00Z,28.1324,-97.0345,1015.4,1111122 
TCOON,ioos:station:TCOON:146:1,2017-08-09T23:30:00Z,28.1324,-97.0345,1013.6,1111122 
TCOON,ioos:station:TCOON:146:1,2017-08-10T00:30:00Z,28.1324,-97.0345,1013.6,1111122 
TCOON,ioos:station:TCOON:146:1,2017-08-10T01:30:00Z,28.1324,-97.0345,1014.2,1111122 
TCOON,ioos:station:TCOON:146:1,2017-08-10T02:30:00Z,28.1324,-97.0345,1014.6,1111122 
TCOON,ioos:station:TCOON:146:1,2017-08-10T03:30:00Z,28.1324,-97.0345,1015.6,1111122 
TCOON,ioos:station:TCOON:146:1,2017-08-10T04:30:00Z,28.1324,-97.0345,1015.7,1111122 
TCOON,ioos:station:TCOON:146:1,2017-08-10T05:30:00Z,28.1324,-97.0345,1015.8,1111122 
TCOON,ioos:station:TCOON:146:1,2017-08-10T06:30:00Z,28.1324,-97.0345,1015.0,1111122 
TCOON,ioos:station:TCOON:146:1,2017-08-10T07:30:00Z,28.1324,-97.0345,1015.1,1111122 
TCOON,ioos:station:TCOON:146:1,2017-08-10T08:30:00Z,28.1324,-97.0345,1015.3,1111122 
TCOON,ioos:station:TCOON:146:1,2017-08-10T09:30:00Z,28.1324,-97.0345,1015.3,1111122 
TCOON,ioos:station:TCOON:146:1,2017-08-10T10:30:00Z,28.1324,-97.0345,1015.3,1111122 
TCOON,ioos:station:TCOON:146:1,2017-08-10T11:30:00Z,28.1324,-97.0345,1015.8,1111122 
TCOON,ioos:station:TCOON:146:1,2017-08-10T12:30:00Z,28.1324,-97.0345,1016.2,1111122 
TCOON,ioos:station:TCOON:146:1,2017-08-10T13:30:00Z,28.1324,-97.0345,1016.7,1111122 
TCOON,ioos:station:TCOON:146:1,2017-08-10T14:30:00Z,28.1324,-97.0345,1017.0,1111122 
TCOON,ioos:station:TCOON:146:1,2017-08-10T15:30:00Z,28.1324,-97.0345,1017.5,1111122 
TCOON,ioos:station:TCOON:146:1,2017-08-10T16:30:00Z,28.1324,-97.0345,1017.7,1111122 
TCOON,ioos:station:TCOON:146:1,2017-08-10T17:30:00Z,28.1324,-97.0345,1017.7,1111122 
TCOON,ioos:station:TCOON:146:1,2017-08-10T18:30:00Z,28.1324,-97.0345,1017.3,1111122 
TCOON,ioos:station:TCOON:146:1,2017-08-10T19:30:00Z,28.1324,-97.0345,1017.0,1111122 
TCOON,ioos:station:TCOON:146:1,2017-08-10T20:30:00Z,28.1324,-97.0345,1016.6,1111122 
TCOON,ioos:station:TCOON:146:1,2017-08-10T21:30:00Z,28.1324,-97.0345,1016.0,1111122 
TCOON,ioos:station:TCOON:146:1,2017-08-10T22:30:00Z,28.1324,-97.0345,1015.8,1111122 
TCOON,ioos:station:TCOON:146:1,2017-08-10T23:30:00Z,28.1324,-97.0345,1016.0,1111122 
TCOON,ioos:station:TCOON:146:1,2017-08-11T00:30:00Z,28.1324,-97.0345,1016.2,1111122 
TCOON,ioos:station:TCOON:146:1,2017-08-11T01:30:00Z,28.1324,-97.0345,1015.5,1111122 
TCOON,ioos:station:TCOON:146:1,2017-08-11T02:30:00Z,28.1324,-97.0345,1015.8,1111122 
TCOON,ioos:station:TCOON:146:1,2017-08-11T03:30:00Z,28.1324,-97.0345,1016.4,1111122 
TCOON,ioos:station:TCOON:146:1,2017-08-11T04:30:00Z,28.1324,-97.0345,1016.2,1111122 
TCOON,ioos:station:TCOON:146:1,2017-08-11T05:30:00Z,28.1324,-97.0345,1016.5,1111122 
TCOON,ioos:station:TCOON:146:1,2017-08-11T06:30:00Z,28.1324,-97.0345,1016.2,1111122 
TCOON,ioos:station:TCOON:146:1,2017-08-11T07:30:00Z,28.1324,-97.0345,1015.8,1111122 
TCOON,ioos:station:TCOON:146:1,2017-08-11T08:30:00Z,28.1324,-97.0345,1015.7,1111122 
TCOON,ioos:station:TCOON:146:1,2017-08-11T09:30:00Z,28.1324,-97.0345,1015.7,1111122 
TCOON,ioos:station:TCOON:146:1,2017-08-11T10:30:00Z,28.1324,-97.0345,1015.8,1111122 
TCOON,ioos:station:TCOON:146:1,2017-08-11T11:30:00Z,28.1324,-97.0345,1016.1,1111122 
TCOON,ioos:station:TCOON:146:1,2017-08-11T12:30:00Z,28.1324,-97.0345,1016.5,1111122 
TCOON,ioos:station:TCOON:146:1,2017-08-11T13:30:00Z,28.1324,-97.0345,1017.1,1111122 
TCOON,ioos:station:TCOON:146:1,2017-08-11T14:30:00Z,28.1324,-97.0345,1017.5,1111122 
TCOON,ioos:station:TCOON:146:1,2017-08-11T15:30:00Z,28.1324,-97.0345,1017.6,1111122 
TCOON,ioos:station:TCOON:146:1,2017-08-11T16:30:00Z,28.1324,-97.0345,1017.7,1111122 
TCOON,ioos:station:TCOON:146:1,2017-08-11T17:30:00Z,28.1324,-97.0345,1017.5,1111122 
TCOON,ioos:station:TCOON:146:1,2017-08-11T18:30:00Z,28.1324,-97.0345,1017.1,1111122 
TCOON,ioos:station:TCOON:146:1,2017-08-11T19:30:00Z,28.1324,-97.0345,1016.5,1111122 
TCOON,ioos:station:TCOON:146:1,2017-08-11T20:30:00Z,28.1324,-97.0345,1015.7,1111122 
TCOON,ioos:station:TCOON:146:1,2017-08-11T21:30:00Z,28.1324,-97.0345,1015.0,1111122 
TCOON,ioos:station:TCOON:146:1,2017-08-11T22:30:00Z,28.1324,-97.0345,1014.4,1111122 
TCOON,ioos:station:TCOON:146:1,2017-08-11T23:30:00Z,28.1324,-97.0345,1013.9,1111122 
TCOON,ioos:station:TCOON:146:1,2017-08-12T00:30:00Z,28.1324,-97.0345,1013.5,1111122 
TCOON,ioos:station:TCOON:146:1,2017-08-12T01:30:00Z,28.1324,-97.0345,1013.4,1111122 
TCOON,ioos:station:TCOON:146:1,2017-08-12T02:30:00Z,28.1324,-97.0345,1013.5,1111122 
TCOON,ioos:station:TCOON:146:1,2017-08-12T03:30:00Z,28.1324,-97.0345,1013.8,1111122 
TCOON,ioos:station:TCOON:146:1,2017-08-12T04:30:00Z,28.1324,-97.0345,1014.2,1111122 
TCOON,ioos:station:TCOON:146:1,2017-08-12T05:30:00Z,28.1324,-97.0345,1014.4,1111122 
TCOON,ioos:station:TCOON:146:1,2017-08-12T06:30:00Z,28.1324,-97.0345,1014.5,1111122 
TCOON,ioos:station:TCOON:146:1,2017-08-12T07:30:00Z,28.1324,-97.0345,1014.5,1111122 
TCOON,ioos:station:TCOON:146:1,2017-08-12T08:30:00Z,28.1324,-97.0345,1014.5,1111122 
TCOON,ioos:station:TCOON:146:1,2017-08-12T09:30:00Z,28.1324,-97.0345,1014.3,1111122 
TCOON,ioos:station:TCOON:146:1,2017-08-12T10:30:00Z,28.1324,-97.0345,1014.4,1111122 
TCOON,ioos:station:TCOON:146:1,2017-08-12T11:30:00Z,28.1324,-97.0345,1014.8,1111122 
TCOON,ioos:station:TCOON:146:1,2017-08-12T12:30:00Z,28.1324,-97.0345,1015.0,1111122 
TCOON,ioos:station:TCOON:146:1,2017-08-12T13:30:00Z,28.1324,-97.0345,1015.3,1111122 
TCOON,ioos:station:TCOON:146:1,2017-08-12T14:30:00Z,28.1324,-97.0345,1015.2,1111122 
TCOON,ioos:station:TCOON:146:1,2017-08-12T15:30:00Z,28.1324,-97.0345,1015.1,1111122 
TCOON,ioos:station:TCOON:146:1,2017-08-12T16:30:00Z,28.1324,-97.0345,1014.7,1111122 
TCOON,ioos:station:TCOON:146:1,2017-08-12T17:30:00Z,28.1324,-97.0345,1014.3,1111122 
TCOON,ioos:station:TCOON:146:1,2017-08-12T18:30:00Z,28.1324,-97.0345,1013.9,1111122 
TCOON,ioos:station:TCOON:146:1,2017-08-12T19:30:00Z,28.1324,-97.0345,1013.3,1111122 
TCOON,ioos:station:TCOON:146:1,2017-08-12T20:30:00Z,28.1324,-97.0345,1012.9,1111122 
TCOON,ioos:station:TCOON:146:1,2017-08-12T21:30:00Z,28.1324,-97.0345,1012.3,1111122 
TCOON,ioos:station:TCOON:146:1,2017-08-12T22:30:00Z,28.1324,-97.0345,1012.0,1111122 
TCOON,ioos:station:TCOON:146:1,2017-08-12T23:30:00Z,28.1324,-97.0345,1011.7,1111122 
TCOON,ioos:station:TCOON:146:1,2017-08-13T00:30:00Z,28.1324,-97.0345,1011.4,1111122 
TCOON,ioos:station:TCOON:146:1,2017-08-13T01:30:00Z,28.1324,-97.0345,1011.6,1111122 
TCOON,ioos:station:TCOON:146:1,2017-08-13T02:30:00Z,28.1324,-97.0345,1011.9,1111122 
TCOON,ioos:station:TCOON:146:1,2017-08-13T03:30:00Z,28.1324,-97.0345,1012.2,1111122 
TCOON,ioos:station:TCOON:146:1,2017-08-13T04:30:00Z,28.1324,-97.0345,1013.3,1111122 
TCOON,ioos:station:TCOON:146:1,2017-08-13T05:30:00Z,28.1324,-97.0345,1013.3,1111122 
TCOON,ioos:station:TCOON:146:1,2017-08-13T06:30:00Z,28.1324,-97.0345,1012.7,1111122 
TCOON,ioos:station:TCOON:146:1,2017-08-13T07:30:00Z,28.1324,-97.0345,1012.5,1111122 
TCOON,ioos:station:TCOON:146:1,2017-08-13T08:30:00Z,28.1324,-97.0345,1011.8,1111122 
TCOON,ioos:station:TCOON:146:1,2017-08-13T09:30:00Z,28.1324,-97.0345,1011.7,1111122 
TCOON,ioos:station:TCOON:146:1,2017-08-13T10:30:00Z,28.1324,-97.0345,1011.6,1111122 
TCOON,ioos:station:TCOON:146:1,2017-08-13T11:30:00Z,28.1324,-97.0345,1012.0,1111122 
TCOON,ioos:station:TCOON:146:1,2017-08-13T12:30:00Z,28.1324,-97.0345,1012.5,1111122 
TCOON,ioos:station:TCOON:146:1,2017-08-13T13:30:00Z,28.1324,-97.0345,1012.6,1111122 
TCOON,ioos:station:TCOON:146:1,2017-08-13T14:30:00Z,28.1324,-97.0345,1012.8,1111122 
TCOON,ioos:station:TCOON:146:1,2017-08-13T15:30:00Z,28.1324,-97.0345,1013.1,1111122 
TCOON,ioos:station:TCOON:146:1,2017-08-13T16:30:00Z,28.1324,-97.0345,1013.0,1111122 
TCOON,ioos:station:TCOON:146:1,2017-08-13T17:30:00Z,28.1324,-97.0345,1013.1,1111122 
TCOON,ioos:station:TCOON:146:1,2017-08-13T18:30:00Z,28.1324,-97.0345,1012.7,1111122 
TCOON,ioos:station:TCOON:146:1,2017-08-13T19:30:00Z,28.1324,-97.0345,1012.1,1111122 
TCOON,ioos:station:TCOON:146:1,2017-08-13T20:30:00Z,28.1324,-97.0345,1011.4,1111122 
TCOON,ioos:station:TCOON:146:1,2017-08-13T21:30:00Z,28.1324,-97.0345,1010.5,1111122 
TCOON,ioos:station:TCOON:146:1,2017-08-13T22:30:00Z,28.1324,-97.0345,1010.0,1111122 
TCOON,ioos:station:TCOON:146:1,2017-08-13T23:30:00Z,28.1324,-97.0345,1009.7,1111122 
TCOON,ioos:station:TCOON:146:1,2017-08-14T00:30:00Z,28.1324,-97.0345,1009.7,1111122 
TCOON,ioos:station:TCOON:146:1,2017-08-14T01:30:00Z,28.1324,-97.0345,1010.0,1111122 
TCOON,ioos:station:TCOON:146:1,2017-08-14T02:30:00Z,28.1324,-97.0345,1010.5,1111122 
TCOON,ioos:station:TCOON:146:1,2017-08-14T03:30:00Z,28.1324,-97.0345,1011.1,1111122 
TCOON,ioos:station:TCOON:146:1,2017-08-14T04:30:00Z,28.1324,-97.0345,1011.2,1111122 
TCOON,ioos:station:TCOON:146:1,2017-08-14T05:30:00Z,28.1324,-97.0345,1010.9,1111122 
TCOON,ioos:station:TCOON:146:1,2017-08-14T06:30:00Z,28.1324,-97.0345,1010.8,1111122 
TCOON,ioos:station:TCOON:146:1,2017-08-14T07:30:00Z,28.1324,-97.0345,1010.6,1111122 
TCOON,ioos:station:TCOON:146:1,2017-08-14T08:30:00Z,28.1324,-97.0345,1010.6,1111122 
TCOON,ioos:station:TCOON:146:1,2017-08-14T09:30:00Z,28.1324,-97.0345,1010.9,1111122 
TCOON,ioos:station:TCOON:146:1,2017-08-14T10:30:00Z,28.1324,-97.0345,1010.7,1111122 
TCOON,ioos:station:TCOON:146:1,2017-08-14T11:30:00Z,28.1324,-97.0345,1010.6,1111122 
TCOON,ioos:station:TCOON:146:1,2017-08-14T12:30:00Z,28.1324,-97.0345,1011.0,1111122 
TCOON,ioos:station:TCOON:146:1,2017-08-14T13:30:00Z,28.1324,-97.0345,1011.2,1111122 
TCOON,ioos:station:TCOON:146:1,2017-08-14T14:30:00Z,28.1324,-97.0345,1011.5,1111122 
TCOON,ioos:station:TCOON:146:1,2017-08-14T15:30:00Z,28.1324,-97.0345,1011.5,1111122 
TCOON,ioos:station:TCOON:146:1,2017-08-14T16:30:00Z,28.1324,-97.0345,1011.6,1111122 
TCOON,ioos:station:TCOON:146:1,2017-08-14T17:30:00Z,28.1324,-97.0345,1011.2,1111122 
TCOON,ioos:station:TCOON:146:1,2017-08-14T18:30:00Z,28.1324,-97.0345,1010.9,1111122 
TCOON,ioos:station:TCOON:146:1,2017-08-14T19:30:00Z,28.1324,-97.0345,1010.1,1111122 
TCOON,ioos:station:TCOON:146:1,2017-08-14T20:30:00Z,28.1324,-97.0345,1009.5,1111122 
TCOON,ioos:station:TCOON:146:1,2017-08-14T21:30:00Z,28.1324,-97.0345,1008.9,1111122 
TCOON,ioos:station:TCOON:146:1,2017-08-14T22:30:00Z,28.1324,-97.0345,1008.7,1111122 
TCOON,ioos:station:TCOON:146:1,2017-08-14T23:30:00Z,28.1324,-97.0345,1008.4,1111122 
TCOON,ioos:station:TCOON:146:1,2017-08-15T00:30:00Z,28.1324,-97.0345,1008.4,1111122 